• In Uzbekistan
  • List of Countries
  • For 7 days
  • Water Temperature
  • Satellite Maps
  • Weather Map
  • Weather Widgets
  • user-avatar
    Login

    Hourly Weather Luginy

    Today, 23 April, Tuesday

    Time Temperature Precipitation Wind Pressure Humidity
    00:00 +11°C° 0 mm 1 mps 755 mmHg 53%
    01:00 +11°C° 0 mm 1 mps 755 mmHg 53%
    02:00 +9°C° 0 mm 2 mps 755 mmHg 52%
    03:00 +9°C° 0 mm 2 mps 755 mmHg 54%
    04:00 +8°C° 0 mm 2 mps 755 mmHg 55%
    05:00 +7°C° 0 mm 2 mps 755 mmHg 57%
    06:00 +9°C° 0 mm 2 mps 755 mmHg 55%
    07:00 +12°C° 0 mm 2 mps 755 mmHg 52%
    08:00 +12°C° 0 mm 3 mps 756 mmHg 48%
    09:00 +14°C° 0 mm 3 mps 756 mmHg 42%
    10:00 +15°C° 0 mm 4 mps 756 mmHg 36%
    11:00 +17°C° 0 mm 5 mps 756 mmHg 31%
    12:00 +17°C° 0 mm 5 mps 756 mmHg 31%
    13:00 +19°C° 0 mm 5 mps 755 mmHg 31%
    14:00 +19°C° 0 mm 5 mps 755 mmHg 31%
    15:00 +19°C° 0 mm 4 mps 755 mmHg 33%
    16:00 +18°C° 0 mm 4 mps 755 mmHg 35%
    17:00 +18°C° 0 mm 4 mps 754 mmHg 36%
    18:00 +16°C° 0 mm 3 mps 754 mmHg 42%
    19:00 +13°C° 0 mm 3 mps 754 mmHg 48%
    20:00 +12°C° 0 mm 2 mps 754 mmHg 54%
    21:00 +12°C° 0 mm 2 mps 755 mmHg 55%
    22:00 +12°C° 0 mm 2 mps 755 mmHg 55%
    23:00 +10°C° 0 mm 2 mps 755 mmHg 56%

    Tomorrow, 24 April, Wednesday

    Time Temperature Precipitation Wind Pressure Humidity
    00:00 +10°C° 0 mm 2 mps 755 mmHg 59%
    01:00 +9°C° 0 mm 2 mps 755 mmHg 62%
    02:00 +8°C° 0 mm 2 mps 755 mmHg 65%
    03:00 +8°C° 0 mm 2 mps 755 mmHg 66%
    04:00 +7°C° 0 mm 2 mps 755 mmHg 66%
    05:00 +7°C° 0 mm 2 mps 755 mmHg 67%
    06:00 +9°C° 0 mm 3 mps 755 mmHg 62%
    07:00 +11°C° 0 mm 3 mps 756 mmHg 57%
    08:00 +13°C° 0 mm 4 mps 756 mmHg 53%
    09:00 +14°C° 0 mm 4 mps 756 mmHg 47%
    10:00 +16°C° 0 mm 5 mps 756 mmHg 42%
    11:00 +17°C° 0 mm 6 mps 756 mmHg 37%
    12:00 +19°C° 0 mm 6 mps 755 mmHg 36%
    13:00 +19°C° 0 mm 6 mps 755 mmHg 36%
    14:00 +20°C° 0 mm 6 mps 755 mmHg 35%
    15:00 +19°C° 0 mm 5 mps 755 mmHg 37%
    16:00 +19°C° 0 mm 5 mps 754 mmHg 39%
    17:00 +19°C° 0 mm 4 mps 754 mmHg 40%
    18:00 +17°C° 0 mm 4 mps 754 mmHg 47%
    19:00 +14°C° 0 mm 3 mps 754 mmHg 54%
    20:00 +12°C° 0 mm 3 mps 754 mmHg 60%
    21:00 +11°C° 0 mm 3 mps 754 mmHg 62%
    22:00 +11°C° 0 mm 3 mps 754 mmHg 64%
    23:00 +10°C° 0 mm 2 mps 754 mmHg 67%

    Day after tomorrow, 25 April, Thursday

    Time Temperature Precipitation Wind Pressure Humidity
    00:00 +10°C° 0 mm 2 mps 754 mmHg 68%
    01:00 +9°C° 0 mm 2 mps 754 mmHg 69%
    02:00 +9°C° 0 mm 2 mps 754 mmHg 70%
    03:00 +8°C° 0 mm 2 mps 754 mmHg 70%
    04:00 +8°C° 0 mm 3 mps 754 mmHg 70%
    05:00 +8°C° 0 mm 3 mps 754 mmHg 70%
    06:00 +10°C° 0 mm 3 mps 754 mmHg 63%
    07:00 +12°C° 0 mm 4 mps 754 mmHg 57%
    08:00 +14°C° 0 mm 5 mps 754 mmHg 50%
    09:00 +15°C° 0 mm 5 mps 754 mmHg 46%
    10:00 +16°C° 0 mm 6 mps 754 mmHg 43%
    11:00 +19°C° 0 mm 6 mps 754 mmHg 40%
    12:00 +19°C° 0 mm 6 mps 754 mmHg 39%
    13:00 +20°C° 0 mm 6 mps 753 mmHg 39%
    14:00 +20°C° 0 mm 6 mps 753 mmHg 38%
    15:00 +20°C° 0 mm 5 mps 753 mmHg 40%
    16:00 +20°C° 0 mm 5 mps 752 mmHg 42%
    17:00 +20°C° 0 mm 5 mps 752 mmHg 44%
    18:00 +18°C° 0 mm 4 mps 752 mmHg 50%
    19:00 +16°C° 0 mm 3 mps 752 mmHg 57%
    20:00 +13°C° 0 mm 3 mps 752 mmHg 63%
    21:00 +13°C° 0 mm 3 mps 752 mmHg 64%
    22:00 +12°C° 0 mm 3 mps 752 mmHg 65%
    23:00 +11°C° 0 mm 3 mps 752 mmHg 66%

    26 April, Friday

    Time Temperature Precipitation Wind Pressure Humidity
    00:00 +11°C° 0 mm 3 mps 752 mmHg 67%
    01:00 +11°C° 0 mm 3 mps 751 mmHg 69%
    02:00 +10°C° 0 mm 3 mps 751 mmHg 70%
    03:00 +10°C° 0 mm 3 mps 751 mmHg 72%
    04:00 +10°C° 0 mm 3 mps 751 mmHg 73%
    05:00 +9°C° 0 mm 3 mps 751 mmHg 75%
    06:00 +11°C° 0 mm 3 mps 751 mmHg 70%
    07:00 +12°C° 0 mm 4 mps 751 mmHg 64%
    08:00 +14°C° 0 mm 5 mps 751 mmHg 59%
    09:00 +15°C° 0 mm 5 mps 750 mmHg 53%
    10:00 +17°C° 0 mm 5 mps 750 mmHg 47%
    11:00 +19°C° 0 mm 5 mps 750 mmHg 42%
    12:00 +20°C° 0 mm 6 mps 750 mmHg 41%
    13:00 +21°C° 0 mm 6 mps 749 mmHg 40%
    14:00 +21°C° 0 mm 6 mps 749 mmHg 40%
    15:00 +21°C° 0 mm 5 mps 748 mmHg 42%
    16:00 +21°C° 0 mm 5 mps 748 mmHg 45%
    17:00 +21°C° 0 mm 5 mps 748 mmHg 48%
    18:00 +19°C° 0 mm 5 mps 747 mmHg 53%
    19:00 +17°C° 0 mm 4 mps 747 mmHg 59%
    20:00 +15°C° 0 mm 4 mps 747 mmHg 65%
    21:00 +14°C° 0.1 mm 4 mps 747 mmHg 66%
    22:00 +14°C° 0.1 mm 4 mps 747 mmHg 67%
    23:00 +13°C° 0.1 mm 4 mps 747 mmHg 67%

    27 April, Saturday

    Time Temperature Precipitation Wind Pressure Humidity
    00:00 +13°C° 0.1 mm 4 mps 746 mmHg 69%
    01:00 +13°C° 0.1 mm 4 mps 746 mmHg 71%
    02:00 +12°C° 0.1 mm 3 mps 746 mmHg 72%
    03:00 +12°C° 0.1 mm 4 mps 745 mmHg 72%
    04:00 +12°C° 0.1 mm 4 mps 745 mmHg 71%
    05:00 +12°C° 0.1 mm 4 mps 745 mmHg 71%
    06:00 +12°C° 0.5 mm 5 mps 745 mmHg 72%
    07:00 +13°C° 0.5 mm 5 mps 744 mmHg 74%
    08:00 +13°C° 0.5 mm 5 mps 744 mmHg 75%
    09:00 +14°C° 1.1 mm 5 mps 744 mmHg 75%
    10:00 +15°C° 1.1 mm 5 mps 744 mmHg 75%
    11:00 +16°C° 1.1 mm 5 mps 744 mmHg 75%
    12:00 +17°C° 0.1 mm 5 mps 744 mmHg 72%
    13:00 +19°C° 0.1 mm 5 mps 744 mmHg 69%
    14:00 +20°C° 0.1 mm 5 mps 743 mmHg 66%
    15:00 +21°C° 0 mm 4 mps 743 mmHg 64%
    16:00 +22°C° 0 mm 4 mps 743 mmHg 63%
    17:00 +22°C° 0 mm 3 mps 742 mmHg 61%
    18:00 +21°C° 0.7 mm 3 mps 742 mmHg 69%
    19:00 +19°C° 0.7 mm 3 mps 742 mmHg 76%
    20:00 +17°C° 0.7 mm 3 mps 742 mmHg 83%
    21:00 +17°C° 1.7 mm 3 mps 742 mmHg 84%
    22:00 +16°C° 1.7 mm 3 mps 742 mmHg 84%
    23:00 +16°C° 1.7 mm 3 mps 743 mmHg 85%

    28 April, Sunday

    Time Temperature Precipitation Wind Pressure Humidity
    00:00 +14°C° 0.2 mm 3 mps 743 mmHg 86%
    01:00 +15°C° 0.2 mm 2 mps 742 mmHg 88%
    02:00 +14°C° 0.2 mm 2 mps 742 mmHg 89%
    03:00 +14°C° 0 mm 2 mps 742 mmHg 90%
    04:00 +13°C° 0 mm 2 mps 742 mmHg 91%
    05:00 +13°C° 0 mm 2 mps 742 mmHg 93%
    06:00 +14°C° 0 mm 2 mps 743 mmHg 91%
    07:00 +15°C° 0 mm 2 mps 743 mmHg 90%
    08:00 +17°C° 0 mm 3 mps 743 mmHg 88%
    09:00 +17°C° 0.2 mm 3 mps 744 mmHg 85%
    10:00 +17°C° 0.2 mm 3 mps 744 mmHg 82%
    11:00 +18°C° 0.2 mm 3 mps 744 mmHg 79%
    12:00 +18°C° 0.1 mm 3 mps 744 mmHg 74%
    13:00 +19°C° 0.1 mm 3 mps 744 mmHg 69%
    14:00 +20°C° 0.1 mm 3 mps 744 mmHg 64%
    15:00 +20°C° 0 mm 3 mps 744 mmHg 64%
    16:00 +19°C° 0 mm 3 mps 744 mmHg 64%
    17:00 +19°C° 0 mm 3 mps 744 mmHg 63%
    18:00 +18°C° 0 mm 3 mps 744 mmHg 69%
    19:00 +16°C° 0 mm 3 mps 744 mmHg 74%
    20:00 +14°C° 0 mm 2 mps 744 mmHg 80%
    21:00 +14°C° 0 mm 2 mps 745 mmHg 81%
    22:00 +14°C° 0 mm 2 mps 745 mmHg 83%
    23:00 +14°C° 0 mm 2 mps 745 mmHg 84%
    Show more